Location: Cuiry
(49.3858°N, 3.7708°E)
Time: 22:34:37
(UTC+00:00)

Resurs 01 Rocket - Visible Passes

Search period start: 18 April 2026 00:00
Search period end: 28 April 2026 00:00
Orbit: 625 x 637 km, 97.7° (Epoch: 18 April)

Date Brightness Start Highest point End Pass type
(mag) Time Alt. Az. Time Alt. Az. Time Alt. Az.
18 Apr 4.5 19:53:58 10° SW 19:56:29 15° W 19:59:01 10° NW visible
21 Apr 3.6 19:17:57 10° SSW 19:21:48 30° W 19:25:43 10° NNW visible
22 Apr 4.3 19:39:27 10° SW 19:42:40 20° W 19:45:53 10° NW visible
23 Apr 4.6 20:01:37 10° WSW 20:03:34 13° W 20:05:31 10° WNW visible
26 Apr 3.9 19:25:11 10° SSW 19:28:51 26° W 19:32:32 10° NW visible
27 Apr 4.4 19:46:51 10° SW 19:49:42 17° W 19:52:35 10° NW visible
